EN

Hourly Weather Aalen

Today, 14 June, Monday

Time Temperature Precipitation Wind Pressure Humidity
00:00 +11°C° 0 mm 1 mps 727 mmHg 85%
01:00 +11°C° 0 mm 1 mps 726 mmHg 86%
02:00 +11°C° 0 mm 1 mps 726 mmHg 87%
03:00 +11°C° 0 mm 1 mps 726 mmHg 87%
04:00 +10°C° 0 mm 1 mps 725 mmHg 88%
05:00 +12°C° 0 mm 2 mps 725 mmHg 84%
06:00 +13°C° 0 mm 2 mps 726 mmHg 79%
07:00 +15°C° 0 mm 2 mps 726 mmHg 73%
08:00 +16°C° 0 mm 2 mps 726 mmHg 69%
09:00 +18°C° 0 mm 2 mps 726 mmHg 64%
10:00 +19°C° 0 mm 3 mps 726 mmHg 59%
11:00 +20°C° 0 mm 2 mps 725 mmHg 57%
12:00 +21°C° 0 mm 2 mps 725 mmHg 54%
13:00 +23°C° 0 mm 2 mps 725 mmHg 51%
14:00 +23°C° 0 mm 2 mps 724 mmHg 51%
15:00 +24°C° 0 mm 2 mps 724 mmHg 51%
16:00 +24°C° 0 mm 1 mps 724 mmHg 51%
17:00 +23°C° 0 mm 1 mps 724 mmHg 59%
18:00 +22°C° 0 mm 1 mps 723 mmHg 67%
19:00 +21°C° 0 mm 1 mps 723 mmHg 74%
20:00 +19°C° 0 mm 1 mps 723 mmHg 76%
21:00 +18°C° 0 mm 1 mps 723 mmHg 79%
22:00 +15°C° 0 mm 1 mps 723 mmHg 81%
23:00 +14°C° 0 mm 1 mps 723 mmHg 81%

Tomorrow, 15 June, Tuesday

Time Temperature Precipitation Wind Pressure Humidity
00:00 +14°C° 0 mm 1 mps 723 mmHg 82%
01:00 +13°C° 0 mm 1 mps 723 mmHg 82%
02:00 +13°C° 0 mm 1 mps 722 mmHg 82%
03:00 +13°C° 0 mm 1 mps 722 mmHg 83%
04:00 +12°C° 0 mm 1 mps 722 mmHg 84%
05:00 +14°C° 0 mm 1 mps 723 mmHg 80%
06:00 +15°C° 0 mm 1 mps 723 mmHg 76%
07:00 +18°C° 0 mm 1 mps 723 mmHg 73%
08:00 +20°C° 0 mm 1 mps 723 mmHg 68%
09:00 +21°C° 0 mm 1 mps 723 mmHg 63%
10:00 +23°C° 0 mm 1 mps 723 mmHg 58%
11:00 +24°C° 0 mm 1 mps 723 mmHg 55%
12:00 +25°C° 0 mm 1 mps 723 mmHg 53%
13:00 +25°C° 0 mm 1 mps 723 mmHg 51%
14:00 +26°C° 0 mm 1 mps 723 mmHg 51%
15:00 +26°C° 0 mm 1 mps 723 mmHg 51%
16:00 +26°C° 0 mm 1 mps 723 mmHg 51%
17:00 +25°C° 0 mm 1 mps 723 mmHg 59%
18:00 +24°C° 0 mm 1 mps 722 mmHg 67%
19:00 +23°C° 0 mm 1 mps 722 mmHg 75%
20:00 +21°C° 0 mm 1 mps 722 mmHg 77%
21:00 +17°C° 0 mm 0 mps 722 mmHg 80%
22:00 +16°C° 0 mm 0 mps 722 mmHg 83%
23:00 +15°C° 0 mm 0 mps 722 mmHg 83%

Day after tomorrow, 16 June, Wednesday

Time Temperature Precipitation Wind Pressure Humidity
00:00 +15°C° 0 mm 0 mps 722 mmHg 84%
01:00 +15°C° 0 mm 0 mps 721 mmHg 85%
02:00 +15°C° 0 mm 1 mps 721 mmHg 85%
03:00 +15°C° 0 mm 1 mps 721 mmHg 86%
04:00 +15°C° 0 mm 1 mps 721 mmHg 86%
05:00 +16°C° 0 mm 1 mps 721 mmHg 84%
06:00 +18°C° 0 mm 1 mps 721 mmHg 81%
07:00 +20°C° 0 mm 1 mps 721 mmHg 78%
08:00 +20°C° 0 mm 2 mps 721 mmHg 73%
09:00 +23°C° 0 mm 2 mps 721 mmHg 68%
10:00 +24°C° 0 mm 2 mps 721 mmHg 63%
11:00 +25°C° 0 mm 3 mps 721 mmHg 60%
12:00 +26°C° 0 mm 3 mps 721 mmHg 57%
13:00 +26°C° 0 mm 3 mps 721 mmHg 54%
14:00 +26°C° 0 mm 3 mps 721 mmHg 56%
15:00 +26°C° 0 mm 3 mps 720 mmHg 57%
16:00 +26°C° 0 mm 2 mps 720 mmHg 59%
17:00 +25°C° 0 mm 2 mps 720 mmHg 66%
18:00 +24°C° 0 mm 2 mps 720 mmHg 72%
19:00 +23°C° 0 mm 2 mps 720 mmHg 78%
20:00 +21°C° 0 mm 2 mps 720 mmHg 80%
21:00 +19°C° 0 mm 2 mps 719 mmHg 82%
22:00 +19°C° 0 mm 1 mps 719 mmHg 83%
23:00 +18°C° 0 mm 2 mps 719 mmHg 85%

17 June, Thursday

Time Temperature Precipitation Wind Pressure Humidity
00:00 +17°C° 0 mm 2 mps 719 mmHg 87%
01:00 +17°C° 0 mm 2 mps 719 mmHg 88%
02:00 +16°C° 0 mm 2 mps 719 mmHg 89%
03:00 +16°C° 0 mm 2 mps 719 mmHg 90%
04:00 +15°C° 0 mm 2 mps 719 mmHg 91%
05:00 +16°C° 0 mm 2 mps 719 mmHg 87%
06:00 +18°C° 0 mm 2 mps 719 mmHg 83%
07:00 +19°C° 0 mm 2 mps 720 mmHg 79%
08:00 +21°C° 0 mm 2 mps 720 mmHg 73%
09:00 +24°C° 0 mm 2 mps 720 mmHg 67%
10:00 +26°C° 0 mm 1 mps 720 mmHg 61%
11:00 +27°C° 0 mm 1 mps 720 mmHg 57%
12:00 +28°C° 0 mm 1 mps 720 mmHg 54%
13:00 +30°C° 0 mm 1 mps 720 mmHg 50%
14:00 +30°C° 0 mm 1 mps 720 mmHg 51%
15:00 +30°C° 0 mm 2 mps 720 mmHg 51%
16:00 +30°C° 0 mm 2 mps 720 mmHg 52%
17:00 +28°C° 0 mm 2 mps 719 mmHg 59%
18:00 +27°C° 0 mm 2 mps 719 mmHg 66%
19:00 +25°C° 0 mm 2 mps 719 mmHg 73%
20:00 +24°C° 0 mm 2 mps 719 mmHg 75%
21:00 +22°C° 0 mm 1 mps 719 mmHg 76%
22:00 +20°C° 0 mm 1 mps 719 mmHg 78%
23:00 +20°C° 0 mm 1 mps 718 mmHg 79%

18 June, Friday

Time Temperature Precipitation Wind Pressure Humidity
00:00 +19°C° 0 mm 1 mps 718 mmHg 81%
01:00 +19°C° 0 mm 1 mps 718 mmHg 83%
02:00 +18°C° 0 mm 1 mps 719 mmHg 86%
03:00 +17°C° 0 mm 2 mps 719 mmHg 89%
04:00 +17°C° 0 mm 2 mps 719 mmHg 92%
05:00 +18°C° 0.1 mm 2 mps 720 mmHg 90%
06:00 +19°C° 0.1 mm 2 mps 720 mmHg 88%
07:00 +20°C° 0.1 mm 2 mps 720 mmHg 86%
08:00 +21°C° 0.1 mm 2 mps 720 mmHg 80%
09:00 +24°C° 0.1 mm 2 mps 720 mmHg 74%
10:00 +26°C° 0.1 mm 2 mps 721 mmHg 68%
11:00 +26°C° 0 mm 2 mps 721 mmHg 65%
12:00 +27°C° 0 mm 2 mps 721 mmHg 61%
13:00 +28°C° 0 mm 2 mps 721 mmHg 58%
14:00 +28°C° 0.1 mm 1 mps 721 mmHg 58%
15:00 +28°C° 0.1 mm 1 mps 721 mmHg 58%
16:00 +28°C° 0.1 mm 1 mps 721 mmHg 58%
17:00 +28°C° 0 mm 1 mps 720 mmHg 64%
18:00 +27°C° 0 mm 1 mps 720 mmHg 70%
19:00 +24°C° 0 mm 0 mps 720 mmHg 76%
20:00 +23°C° 0 mm 0 mps 720 mmHg 79%
21:00 +21°C° 0 mm 0 mps 720 mmHg 82%
22:00 +20°C° 0 mm 0 mps 721 mmHg 84%
23:00 +19°C° 0 mm 0 mps 721 mmHg 86%

19 June, Saturday

Time Temperature Precipitation Wind Pressure Humidity
00:00 +19°C° 0 mm 0 mps 721 mmHg 87%
01:00 +18°C° 0 mm 0 mps 721 mmHg 88%
02:00 +20°C° 0 mm 1 mps 721 mmHg 89%
03:00 +20°C° 0 mm 1 mps 720 mmHg 90%
04:00 +19°C° 0 mm 1 mps 720 mmHg 91%
05:00 +20°C° 0 mm 1 mps 721 mmHg 88%
06:00 +22°C° 0 mm 1 mps 721 mmHg 86%
07:00 +23°C° 0 mm 1 mps 722 mmHg 83%
08:00 +25°C° 0 mm 1 mps 722 mmHg 77%
09:00 +26°C° 0 mm 1 mps 722 mmHg 70%
10:00 +28°C° 0 mm 1 mps 722 mmHg 64%
11:00 +29°C° 0 mm 1 mps 722 mmHg 61%
12:00 +29°C° 0 mm 1 mps 722 mmHg 57%
13:00 +30°C° 0 mm 1 mps 722 mmHg 54%
14:00 +30°C° 0 mm 2 mps 721 mmHg 55%
15:00 +30°C° 0 mm 2 mps 721 mmHg 56%
16:00 +30°C° 0 mm 2 mps 721 mmHg 57%
17:00 +29°C° 0 mm 2 mps 720 mmHg 63%
18:00 +28°C° 0 mm 2 mps 720 mmHg 70%
19:00 +27°C° 0 mm 2 mps 719 mmHg 77%
20:00 +26°C° 0 mm 3 mps 719 mmHg 77%
21:00 +25°C° 0 mm 3 mps 719 mmHg 76%
22:00 +22°C° 0 mm 3 mps 719 mmHg 76%
23:00 +23°C° 0 mm 2 mps 718 mmHg 78%
Show more